Hourly Data Report for October 10, 2012

All times are specified in Local Standard Time (LST). Add 1 hour to adjust for Daylight Saving Time where and when it is observed.

KITCHENER/WATERLOO
ONTARIO

43°27'39.000" N
80°22'43.000" W
321.60 m
6144239
71368
YKF

Download Data

Hourly Data (October 2012)
Hourly Data Report for October 10, 2012
Temp Definition
°C
Dew Point Temp Definition
°C
Rel Hum Definition
%
Wind Dir Definition
10's deg

Wind Spd Definition
km/h
Visibility Definition
km
Stn Press Definition
kPa
Hmdx Definition


Wind Chill Definition


Weather Definition


TIME
00:00 Legend Double Dagger 4.7 2.3 84 16 8 16.1 97.35     LegendNANA
01:00 Legend Double Dagger 8.1 3.8 74 19 15 16.1 97.26     LegendNANA
02:00 Legend Double Dagger 8.8 4.3 73 18 15 16.1 97.20     LegendNANA
03:00 Legend Double Dagger 7.8 4.6 80 18 13 16.1 97.09     LegendNANA
04:00 Legend Double Dagger 7.7 5.2 84 18 13 16.1 97.01     LegendNANA
05:00 Legend Double Dagger 8.7 6.2 84 18 15 16.1 96.92     LegendNANA
06:00 Legend Double Dagger 9.6 6.9 83 20 17 16.1 96.92     LegendNANA
07:00 Legend Double Dagger 9.1 7.0 87 24 22 11.3 96.92     LegendNANA
08:00 Legend Double Dagger 6.2 5.2 93 26 21 16.1 97.03     LegendNANA
09:00 Legend Double Dagger 6.0 4.5 90 28 28 16.1 97.10     LegendNANA
10:00 Legend Double Dagger 8.0 5.5 84 27 24 16.1 97.12     LegendNANA
11:00 Legend Double Dagger 8.6 3.8 72 26 37 16.1 97.14     LegendNANA
12:00 Legend Double Dagger 9.6 0.9 54 26 41 16.1 97.19     LegendNANA
13:00 Legend Double Dagger 9.8 1.4 56 27 24 16.1 97.20     LegendNANA
14:00 Legend Double Dagger 8.7 0.6 57 26 28 16.1 97.24     LegendNANA
15:00 Legend Double Dagger 8.5 1.8 63 27 22 16.1 97.28     LegendNANA
16:00 Legend Double Dagger 8.1 -0.1 56 26 33 16.1 97.31     LegendNANA
17:00 Legend Double Dagger 6.5 1.3 69 27 28 16.1 97.39     LegendNANA
18:00 Legend Double Dagger 6.3 0.0 64 26 28 16.1 97.45     LegendNANA
19:00 Legend Double Dagger 5.2 -0.1 69 26 24 16.1 97.55     LegendNANA
20:00 Legend Double Dagger 4.7 0.2 73 27 24 16.1 97.65     LegendNANA
21:00 Legend Double Dagger 4.8 -0.4 69 27 30 16.1 97.72     LegendNANA
22:00 Legend Double Dagger 3.8 1.6 85 29 22 16.1 97.83     LegendNANA
23:00 Legend Double Dagger 3.9 1.8 86 27 21 16.1 97.86     LegendNANA

Notes on Data Quality.

Legend

  • E = Estimated
  • M = Missing
  • NA = Not Available
  • ‡ = Partner data that is not subject to review by the National Climate Archives
Date modified: